Satellite-Ground Cal/Val Site Overpasses Predictions

Prediction of Satellite NPP Overpassing Cal/Val Site: Antarctic Dome C

Ground Cal/Val Site Location: Latitude: -75.10, Longitude: 123.35; Satellite-Ground Site NADIR distance within 100 km.

Table of predicted overpasses for the next 14.0 days since TLE Epoch: 12/11/2013
Interval Starting Time Ending Time Minimum Distance Time Minimum Distance (km)
1 12/11/2013 07:46:02 12/11/2013 07:46:23 12/11/2013 07:46:12 66.92
2 12/12/2013 07:27:11 12/12/2013 07:27:38 12/12/2013 07:27:24 40.94
3 12/15/2013 14:50:42 12/15/2013 14:51:12 12/15/2013 14:50:57 9.83
4 12/17/2013 07:33:35 12/17/2013 07:34:04 12/17/2013 07:33:49 4.20
5 12/20/2013 14:57:07 12/20/2013 14:57:35 12/20/2013 14:57:21 26.87
6 12/21/2013 14:38:25 12/21/2013 14:38:42 12/21/2013 14:38:34 80.24
7 12/22/2013 07:39:59 12/22/2013 07:40:26 12/22/2013 07:40:13 32.26


NCC Satellite Cal/Val Overpasses Prediction Service
